Regional Weather Roundup
Issued by NWS

Home | Current Version | Previous Version | Graphics & Text | Print | Product List | Glossary On
Versions: 1 2 3 4 5 6 7 8 9 10 11 12 13 14 15 16 17 18 19 20 21 22 23 24 25 26 27 28 29 30 31 32 33 34 35 36 37 38 39 40 41 42 43 44 45 46 47 48 49 50
000
ASUS43 KDTX 011610
RWRMI
MICHIGAN HOURLY REGIONAL WEATHER ROUNDUP
NATIONAL WEATHER SERVICE DETROIT/PONTIAC MI
1200 PM EDT WED APR 01 2015

NOTE: "FAIR" INDICATES FEW OR NO CLOUDS BELOW 12,000 FEET WITH NO
SIGNIFICANT WEATHER AND/OR OBSTRUCTION TO VISIBILITY.

MIZ047>049-052>055-059>063-066>070-074>076-081>083-011700-
SOUTHEAST LOWER MICHIGAN

CITY           SKY/WX    TMP DP  RH WIND       PRES   REMARKS
ADRIAN         SUNNY     52  38  58 W8        30.13R
ALMA           MOSUNNY   43  35  71 CALM      30.12S
ANN ARBOR      SUNNY     50  36  58 SW5       30.11S
BAD AXE        SUNNY     42  23  46 S6        30.13S
CARO           SUNNY     44  32  62 S7        30.12S
DETROIT CITY   SUNNY     49  33  54 SE3       30.13S
DETROIT        SUNNY     49  35  58 CALM      30.12S
FLINT          SUNNY     49  32  52 CALM      30.12R
GROSSE ILE     SUNNY     41  36  81 SE7       30.12R
HILLSDALE      SUNNY     55  37  50 W13       30.11S
HOWELL         MOSUNNY   48  32  52 CALM      30.10S

CITY           SKY/WX    TMP DP  RH WIND       PRES   REMARKS
JACKSON        SUNNY     53  36  52 W9        30.10S
LAMBERTVILLE   SUNNY     52  37  58 W8        30.14R
LANSING        PTSUNNY   49  32  52 CALM      30.11S
LAPEER         PTSUNNY   36  32  88 SE5       30.13S FOG     WCI  32
MASON          PTSUNNY   49  33  54 W5        30.11S
MONROE         SUNNY     50  37  62 W9        30.12R
MT. CLEMENS    FOG       35  34  99 NE5       30.12S VSB 1/2 WCI  31
PONTIAC        SUNNY     47  32  56 CALM      30.10S
PORT HOPE        N/A     34  26  72 E13       30.12R WCI  25
PORT HURON     PTSUNNY   39  36  87 E6        30.14S HAZE    WCI  35
TRI CITIES     SUNNY     43  33  68 MISG      30.13S
TROY           SUNNY     46  33  60 CALM      30.13S
SAGINAW HB     SUNNY     43  34  70 S5        30.12S
$$
MIZ043>046-050>051-056>058-064>065-071>073-077>080-011700-
SOUTHWEST LOWER MICHIGAN

CITY           SKY/WX    TMP DP  RH WIND       PRES   REMARKS
BATTLE CREEK   SUNNY     55  36  48 MISG      30.10S
BENTON HARBOR  SUNNY     54  36  50 SW12      30.10R
BIG RAPIDS     SUNNY     45  38  75 SE5       30.09S
COLDWATER      SUNNY     55  35  47 W7        30.11S
FREMONT        PTSUNNY   47  29  49 SE5       30.08S
HOLLAND        SUNNY     55  37  50 SW5       30.10S
GRAND RAPIDS   MOSUNNY   50  34  54 CALM      30.10S
IONIA          FAIR      46  34  62 CALM      30.10S
KALAMAZOO      SUNNY     58  36  43 W7        30.10S
LUDINGTON      MOSUNNY   51  35  55 S6        30.07F
MARSHALL       SUNNY     55  36  49 W14       30.09F
MOUNT PLEASANT MOSUNNY   43  32  66 SE6       30.11S
MUSKEGON       PTSUNNY   51  32  48 SE6       30.09S
SOUTH HAVEN    SUNNY     56  35  44 SW7       30.10S
$$
MIZ016>042-011700-
NORTHERN LOWER MICHIGAN

CITY           SKY/WX    TMP DP  RH WIND       PRES   REMARKS
ALPENA         SUNNY     44  27  51 SE10      30.10F
BEAVER ISLAND  SUNNY     42  30  62 SE7       30.06F
BELLAIRE       SUNNY     46  29  51 S3        30.07F
CADILLAC       MOSUNNY   45  30  55 SE8       30.06S
CHARLEVOIX     SUNNY     40  32  73 N7        30.10S
FRANKFORT      PTSUNNY   47  31  53 W7        30.07S
GAYLORD        SUNNY     41  28  60 S8        30.05S
GRAYLING       SUNNY     45  26  48 S8        30.08S
HARBOR SPRINGS SUNNY     44  31  61 CALM      30.07S
HOUGHTON LAKE  SUNNY     45  26  47 S12       30.09R
OSCODA         SUNNY     41  18  39 SE6       30.13S
PELLSTON       SUNNY     42  32  67 SE7       30.08S
ROGERS CITY    SUNNY     43  33  66 SE8       30.10F
TRAVERSE CITY  MOSUNNY   47  31  53 SE8       30.06F
$$
MIZ007>008-015-011700-
EASTERN UPPER MICHIGAN

CITY           SKY/WX    TMP DP  RH WIND       PRES   REMARKS
KINROSS        CLOUDY    37  34  87 SE9       30.07S WCI  31
MACKINAC ISLAN SUNNY     36  33  89 SE5       30.08S WCI  32
NEWBERRY       PTSUNNY   35  32  90 S14       30.04F WCI  25
S. S. MARIE    MOSUNNY   37  29  72 S10       30.07F WCI  30
MUNISING         N/A     61  30  31 SE10G20   30.01F
$$
MIZ004>006-011>014-085-011700-
CENTRAL UPPER MICHIGAN

CITY           SKY/WX    TMP DP  RH WIND       PRES   REMARKS
MANISTIQUE     CLOUDY    33  32  96 SE7       30.06F WCI  27
ESCANABA       CLOUDY    30  28  93 S7        30.07F WCI  23
MENOMINEE      PTSUNNY   36  30  80 E3        30.06S
SAWYER-GWINN   CLOUDY    36  30  80 S16       30.00S WCI  26
$$
MIZ001>003-009>011-084-011700-
WESTERN UPPER MICHIGAN

CITY           SKY/WX    TMP DP  RH WIND       PRES   REMARKS
IRON MOUNTAIN  CLOUDY    37  28  70 S8        30.00F WCI  31
HOUGHTON       CLOUDY    30  28  92 E10       29.93F WCI  21
COPPER HARBOR    N/A     32  29  88 VRB5G18   29.96F WCI  27
IRONWOOD       CLOUDY    45  30  57 SE10      29.81F
$$

ABBREVIATIONS USED IN REMARKS
   TC - TEMPERATURE IN CELSIUS
  WCI - WIND CHILL INDEX
   HX - HEAT INDEX
  VSB - VISIBILITY




USA.gov is the U.S. government's official web portal to all federal, state and local government web resources and services.